Regional Weather Roundup
Issued by NWS

Home | Current Version | Previous Version | Graphics & Text | Print | Product List | Glossary Off
Versions: 1 2 3 4 5 6 7 8 9 10 11 12 13 14 15 16 17 18 19 20 21 22 23 24 25 26 27 28 29 30 31 32 33 34 35 36 37 38 39 40 41 42 43 44 45 46 47 48 49 50

000
ASUS43 KBIS 202210
RWRND

NORTH DAKOTA REGIONAL WEATHER ROUNDUP
NATIONAL WEATHER SERVICE BISMARCK ND
500 PM CDT WED SEP 20 2017

NOTE: "FAIR" INDICATES FEW OR NO CLOUDS BELOW 12,000 FEET WITH NO
SIGNIFICANT WEATHER AND/OR OBSTRUCTIONS TO VISIBILITY.


NDZ001>003-009>011-017-202300-
NORTHWEST NORTH DAKOTA

CITY           SKY/WX    TMP DP  RH WIND       PRES   REMARKS
WILLISTON      SUNNY     67  32  27 W20       29.59R
MINOT          MOSUNNY   70  32  24 SW23G32   29.61F
MINOT AFB      SUNNY     69  33  27 SW13G24   29.59F
$$

NDZ018>021-031>035-040>046-202300-
SOUTHWEST NORTH DAKOTA

CITY           SKY/WX    TMP DP  RH WIND       PRES   REMARKS
BISMARCK       SUNNY     72  36  26 SW10G23   29.70S
DICKINSON      SUNNY     68  28  22 SW22G28   29.65F
GARRISON         N/A     69  36  29 SW22      29.64S
HETTINGER ARPT SUNNY     70  25  18 SW17G26   29.70S
$$

NDZ004>008-012>016-024-026-027-054-202300-
NORTHEAST NORTH DAKOTA

CITY           SKY/WX    TMP DP  RH WIND       PRES   REMARKS
GRAND FORKS    MOSUNNY   72  42  34 SW16      29.70R
GRND FRKS AFB  SUNNY     71  37  28 W18G24    29.71R
DEVILS LAKE    SUNNY     67  37  33 SW17      29.68R
$$

NDZ022-023-025-028>030-036>039-047>053-202300-
SOUTHEAST NORTH DAKOTA

CITY           SKY/WX    TMP DP  RH WIND       PRES   REMARKS
FARGO          SUNNY     72  38  29 SW18      29.77R
JAMESTOWN      MOSUNNY   70  38  31 S14       29.73R
$$




USA.gov is the U.S. government's official web portal to all federal, state and local government web resources and services.